FW1714 Weather Reports


Display with metric or nautical units.
time (UTC)temp
F
wind
direction
speed
MPH
gust
MPH
rain 1hr
in
rain 24hr
in
rain mn
in
humidity
%
barometer
mb
20210917224832 69 109 1.0 5.0 0.00 0.00 0.00 42 1036.7
20210917224325 70 14 2.0 5.0 0.00 0.00 0.00 40 1037.0
20210917223821 69 99 0.0 4.0 0.00 0.00 0.00 43 1036.9
20210917223313 69 108 1.0 4.0 0.00 0.00 0.00 42 1036.8
20210917222830 69 130 1.0 7.0 0.00 0.00 0.00 43 1037.0
20210917222333 69 121 1.0 7.0 0.00 0.00 0.00 42 1036.9
20210917221830 69 142 0.0 4.0 0.00 0.00 0.00 43 1036.9
20210917221333 69 162 1.0 3.0 0.00 0.00 0.00 42 1037.1
20210917220829 69 49 1.0 3.0 0.00 0.00 0.00 41 1037.3
20210917220333 69 139 0.0 2.0 0.00 0.00 0.00 43 1037.2
20210917215826 68 142 0.0 6.0 0.00 0.00 0.00 42 1037.3
20210917215323 68 142 2.0 6.0 0.00 0.00 0.00 43 1037.3
20210917214820 68 115 1.0 4.0 0.00 0.00 0.00 43 1037.2
20210917214333 68 96 1.0 5.0 0.00 0.00 0.00 43 1037.2
20210917213829 68 130 2.0 5.0 0.00 0.00 0.00 42 1037.2
20210917213322 68 159 1.0 4.0 0.00 0.00 0.00 41 1037.2
20210917212820 68 130 0.0 4.0 0.00 0.00 0.00 43 1037.2
20210917212322 67 132 1.0 4.0 0.00 0.00 0.00 44 1037.3
20210917211817 67 114 2.0 5.0 0.00 0.00 0.00 44 1037.5
20210917211320 67 131 2.0 5.0 0.00 0.00 0.00 45 1037.6
20210917210816 66 229 2.0 5.0 0.00 0.00 0.00 46 1037.7
20210917210320 66 128 3.0 5.0 0.00 0.00 0.00 46 1037.5
20210917205818 65 94 2.0 6.0 0.00 0.00 0.00 46 1037.5
20210917205315 65 231 2.0 7.0 0.00 0.00 0.00 45 1037.7
20210917204832 65 146 2.0 7.0 0.00 0.00 0.00 45 1037.9
20210917204325 65 140 2.0 5.0 0.00 0.00 0.00 46 1038.1
20210917203822 65 113 2.0 6.0 0.00 0.00 0.00 45 1037.9
20210917203314 65 272 1.0 4.0 0.00 0.00 0.00 46 1037.9
20210917202831 64 141 1.0 7.0 0.00 0.00 0.00 46 1038.1
20210917202313 64 114 2.0 7.0 0.00 0.00 0.00 46 1038.1
20210917201831 64 126 2.0 4.0 0.00 0.00 0.00 46 1038.1
20210917201333 64 186 1.0 3.0 0.00 0.00 0.00 48 1038.2
20210917200829 63 190 2.0 8.0 0.00 0.00 0.00 47 1038.3
20210917200331 63 77 2.0 8.0 0.00 0.00 0.00 48 1038.4
20210917195828 63 142 1.0 5.0 0.00 0.00 0.00 49 1038.4
20210917195325 63 113 1.0 3.0 0.00 0.00 0.00 50 1038.4
20210917194821 62 110 0.0 8.0 0.00 0.00 0.00 50 1038.6
20210917194314 62 126 3.0 8.0 0.00 0.00 0.00 49 1038.7
20210917193831 62 99 2.0 4.0 0.00 0.00 0.00 51 1038.6
20210917193323 61 163 2.0 6.0 0.00 0.00 0.00 51 1038.7
20210917192820 61 132 2.0 7.0 0.00 0.00 0.00 50 1038.8
20210917192323 61 117 2.0 7.0 0.00 0.00 0.00 51 1039.0
20210917191819 61 129 2.0 7.0 0.00 0.00 0.00 52 1038.9
20210917191320 60 298 2.0 8.0 0.00 0.00 0.00 49 1038.9
20210917190817 61 128 3.0 8.0 0.00 0.00 0.00 50 1039.1
20210917190320 61 139 2.0 5.0 0.00 0.00 0.00 52 1039.0
20210917185820 60 134 1.0 3.0 0.00 0.00 0.00 52 1039.1
20210917185333 60 71 1.0 6.0 0.00 0.00 0.00 53 1039.2
20210917184830 59 125 1.0 7.0 0.00 0.00 0.00 51 1039.4
20210917184324 60 126 3.0 7.0 0.00 0.00 0.00 51 1039.3
20210917183820 60 123 2.0 7.0 0.00 0.00 0.00 52 1039.4
20210917183332 59 109 1.0 7.0 0.00 0.00 0.00 53 1039.6
20210917182830 59 123 1.0 5.0 0.00 0.00 0.00 53 1039.5
20210917182333 59 80 1.0 5.0 0.00 0.00 0.00 52 1039.6
20210917181829 58 128 1.0 4.0 0.00 0.00 0.00 53 1039.7
20210917181332 58 141 1.0 5.0 0.00 0.00 0.00 56 1039.9
20210917180829 58 185 2.0 5.0 0.00 0.00 0.00 52 1040.0
20210917180317 58 71 1.0 6.0 0.00 0.00 0.00 56 1040.1
20210917175832 57 76 3.0 6.0 0.00 0.00 0.00 55 1040.2
20210917175325 57 130 1.0 3.0 0.00 0.00 0.00 54 1040.1
20210917174823 57 186 1.0 4.0 0.00 0.00 0.00 55 1040.1
20210917174315 57 145 1.0 4.0 0.00 0.00 0.00 54 1040.3
20210917173833 57 265 3.0 4.0 0.00 0.00 0.00 52 1040.4
20210917173325 57 144 1.0 4.0 0.00 0.00 0.00 55 1040.4
20210917172821 57 115 1.0 4.0 0.00 0.00 0.00 56 1040.4
20210917172324 56 196 1.0 6.0 0.00 0.00 0.00 57 1040.6
20210917171822 56 117 1.0 6.0 0.00 0.00 0.00 57 1040.6
20210917171324 56 196 2.0 8.0 0.00 0.00 0.00 55 1040.6
20210917170822 56 113 3.0 8.0 0.00 0.00 0.00 56 1040.7
20210917170328 56 183 0.0 4.0 0.00 0.00 0.00 57 1040.7
20210917165825 56 131 1.0 7.0 0.00 0.00 0.00 56 1040.7
20210917165317 56 131 3.0 7.0 0.00 0.00 0.00 56 1040.8
20210917164813 55 154 1.0 4.0 0.00 0.00 0.00 58 1040.7
20210917164326 55 128 1.0 4.0 0.00 0.00 0.00 56 1040.8
20210917163822 54 123 2.0 4.0 0.00 0.00 0.00 58 1040.9
20210917163315 54 123 1.0 5.0 0.00 0.00 0.00 60 1040.9
20210917162832 53 126 3.0 5.0 0.00 0.00 0.00 60 1041.0
20210917162315 53 130 2.0 6.0 0.00 0.00 0.00 61 1041.0
20210917161831 53 130 2.0 4.0 0.00 0.00 0.00 60 1041.0
20210917161314 53 130 1.0 3.0 0.00 0.00 0.00 61 1041.1
20210917160815 52 130 1.0 3.0 0.00 0.00 0.00 62 1041.2
20210917160318 52 130 0.0 3.0 0.00 0.00 0.00 61 1041.2
20210917155814 52 130 1.0 4.0 0.00 0.00 0.00 62 1041.3
20210917155327 52 131 1.0 4.0 0.00 0.00 0.00 61 1041.3
20210917154824 52 131 2.0 4.0 0.00 0.00 0.00 61 1041.5
20210917154316 52 115 0.0 1.0 0.00 0.00 0.00 63 1041.3
20210917153833 52 115 0.0 2.0 0.00 0.00 0.00 63 1041.3
20210917153325 51 115 0.0 4.0 0.00 0.00 0.00 63 1041.2
20210917152822 51 115 1.0 4.0 0.00 0.00 0.00 63 1041.3
20210917152325 51 121 1.0 4.0 0.00 0.00 0.00 62 1041.1
20210917151822 51 135 1.0 4.0 0.00 0.00 0.00 63 1041.1
20210917151325 51 143 0.0 4.0 0.00 0.00 0.00 63 1041.2
20210917150826 51 143 0.0 4.0 0.00 0.00 0.00 63 1041.1
20210917150328 51 132 1.0 4.0 0.00 0.00 0.00 63 1041.1
20210917145824 51 133 0.0 1.0 0.00 0.00 0.00 64 1041.1
20210917145317 51 133 0.0 2.0 0.00 0.00 0.00 64 1041.0
20210917144814 51 133 0.0 2.0 0.00 0.00 0.00 65 1041.1
20210917144326 51 133 0.0 0.0 0.00 0.00 0.00 66 1041.0
20210917143822 50 133 0.0 1.0 0.00 0.00 0.00 65 1041.1
20210917143315 50 133 0.0 3.0 0.00 0.00 0.00 64 1041.0
20210917142831 50 133 1.0 3.0 0.00 0.00 0.00 65 1041.0
20210917142314 50 133 1.0 2.0 0.00 0.00 0.00 65 1041.1
20210917141831 50 133 0.0 2.0 0.00 0.00 0.00 66 1041.1
20210917141318 50 133 0.0 2.0 0.00 0.00 0.00 66 1041.1
20210917140815 50 132 0.0 0.0 0.00 0.00 0.00 67 1041.1
20210917140318 50 132 0.0 0.0 0.00 0.00 0.00 66 1041.0
20210917135814 50 132 0.0 0.0 0.00 0.00 0.00 67 1041.0
20210917135327 50 132 0.0 1.0 0.00 0.00 0.00 67 1040.9
20210917134825 50 132 0.0 1.0 0.00 0.00 0.00 67 1040.9
20210917134317 50 132 0.0 0.0 0.00 0.00 0.00 68 1040.9
20210917133813 49 132 0.0 0.0 0.00 0.00 0.00 68 1040.9
20210917133325 49 132 0.0 0.0 0.00 0.00 0.00 68 1040.8
20210917132823 49 132 0.0 0.0 0.00 0.00 0.00 67 1040.9
20210917132325 49 132 0.0 0.0 0.00 0.00 0.00 68 1040.9
20210917131822 49 132 0.0 2.0 0.00 0.00 0.00 68 1040.8
20210917131328 49 133 0.0 2.0 0.00 0.00 0.00 69 1040.7
20210917130825 49 132 1.0 3.0 0.00 0.00 0.00 68 1040.7
20210917130327 49 130 1.0 3.0 0.00 0.00 0.00 69 1040.6
20210917125825 48 360 0.0 1.0 0.00 0.00 0.00 70 1040.5
20210917125318 48 119 0.0 1.0 0.00 0.00 0.00 71 1040.5
20210917124816 48 117 0.0 1.0 0.00 0.00 0.00 72 1040.5
20210917124328 47 117 0.0 1.0 0.00 0.00 0.00 72 1040.4
20210917123823 47 119 0.0 1.0 0.00 0.00 0.00 74 1040.4
20210917123315 47 117 0.0 1.0 0.00 0.00 0.00 75 1040.4
20210917122833 46 117 0.0 0.0 0.00 0.00 0.00 75 1040.4
20210917122317 46 119 0.0 1.0 0.00 0.00 0.00 76 1040.4
20210917121817 46 119 0.0 1.0 0.00 0.00 0.00 77 1040.3
20210917121320 45 118 0.0 0.0 0.00 0.00 0.00 77 1040.3
20210917120816 45 360 0.0 0.0 0.00 0.00 0.00 76 1040.3
20210917120319 45 360 0.0 0.0 0.00 0.00 0.00 75 1040.2
20210917115815 45 360 0.0 0.0 0.00 0.00 0.00 75 1040.1
20210917115327 46 360 0.0 0.0 0.00 0.00 0.00 75 1040.0
20210917114824 46 119 0.0 0.0 0.00 0.00 0.00 73 1039.9
20210917114317 46 360 0.0 0.0 0.00 0.00 0.00 73 1039.9
20210917113815 47 360 0.0 0.0 0.00 0.00 0.00 73 1039.8
20210917113327 47 360 0.0 0.0 0.00 0.00 0.00 72 1039.8
20210917112824 47 360 0.0 0.0 0.00 0.00 0.00 71 1039.9
20210917112326 47 360 0.0 0.0 0.00 0.00 0.00 71 1039.8
20210917111827 48 360 0.0 0.0 0.00 0.00 0.00 70 1039.7
20210917111330 48 360 0.0 0.0 0.00 0.00 0.00 69 1039.6
20210917110826 48 360 0.0 0.0 0.00 0.00 0.00 68 1039.6
20210917110330 49 360 0.0 0.0 0.00 0.00 0.00 68 1039.4
20210917105826 49 117 0.0 1.0 0.00 0.00 0.00 68 1039.4
20210917105319 49 117 0.0 1.0 0.00 0.00 0.00 67 1039.1
20210917104817 49 117 0.0 1.0 0.00 0.00 0.00 67 1039.1
20210917104329 50 117 0.0 0.0 0.00 0.00 0.00 66 1039.1
20210917103825 50 117 0.0 0.0 0.00 0.00 0.00 65 1039.0
20210917103318 51 117 0.0 0.0 0.00 0.00 0.00 65 1039.1
20210917102816 51 360 0.0 1.0 0.00 0.00 0.00 64 1038.8
20210917102322 51 360 0.0 1.0 0.00 0.00 0.00 63 1038.6
20210917101819 52 360 0.0 1.0 0.00 0.00 0.00 63 1038.6
20210917101321 52 360 0.0 1.0 0.00 0.00 0.00 62 1038.4
20210917100819 52 360 0.0 2.0 0.00 0.00 0.00 62 1038.2
20210917100321 53 117 0.0 2.0 0.00 0.00 0.00 62 1038.3
20210917095817 53 118 0.0 3.0 0.00 0.00 0.00 62 1038.1
20210917095330 53 120 0.0 4.0 0.00 0.00 0.00 62 1038.1
20210917094827 53 113 1.0 4.0 0.00 0.00 0.00 62 1037.9
20210917094319 54 134 0.0 3.0 0.00 0.00 0.00 63 1037.7
20210917093816 54 134 0.0 3.0 0.00 0.00 0.00 63 1037.7
20210917093329 54 134 0.0 3.0 0.00 0.00 0.00 64 1037.5
20210917092825 54 134 0.0 3.0 0.00 0.00 0.00 64 1037.4
20210917092331 54 134 0.0 1.0 0.00 0.00 0.00 65 1037.2
20210917091829 55 134 0.0 1.0 0.00 0.00 0.00 64 1036.9
20210917091331 55 134 0.0 1.0 0.00 0.00 0.00 64 1036.9
20210917090827 55 134 0.0 0.0 0.00 0.00 0.00 63 1036.5
20210917090330 56 134 0.0 0.0 0.00 0.00 0.00 62 1036.6
20210917085827 56 134 0.0 0.0 0.00 0.00 0.00 61 1036.4
20210917085320 57 134 0.0 0.0 0.00 0.00 0.00 60 1036.2
20210917084816 57 134 0.0 1.0 0.00 0.00 0.00 59 1036.1
20210917084329 58 134 0.0 1.0 0.00 0.00 0.00 57 1036.1
20210917083826 58 134 0.0 4.0 0.00 0.00 0.00 56 1035.9
20210917083319 59 134 1.0 4.0 0.00 0.00 0.00 56 1035.9
20210917082819 59 136 0.0 2.0 0.00 0.00 0.00 55 1035.8
20210917082322 60 136 0.0 3.0 0.00 0.00 0.00 55 1035.7
20210917081819 60 136 1.0 3.0 0.00 0.00 0.00 54 1035.6
20210917081322 60 82 0.0 2.0 0.00 0.00 0.00 54 1035.4
20210917080818 60 82 0.0 5.0 0.00 0.00 0.00 53 1035.4
20210917080321 61 81 1.0 5.0 0.00 0.00 0.00 53 1035.2
20210917075818 61 136 1.0 5.0 0.00 0.00 0.00 52 1035.2
20210917075331 61 319 1.0 4.0 0.00 0.00 0.00 51 1034.9
20210917074828 61 46 1.0 4.0 0.00 0.00 0.00 50 1035.1
20210917074320 62 93 2.0 8.0 0.00 0.00 0.00 50 1035.1
20210917073817 62 111 2.0 8.0 0.00 0.00 0.00 50 1034.8
20210917073313 62 121 1.0 8.0 0.00 0.00 0.00 48 1034.8
20210917072831 63 113 3.0 8.0 0.00 0.00 0.00 48 1034.5
20210917072314 63 93 2.0 11.0 0.00 0.00 0.00 46 1034.1
20210917071830 63 100 4.0 11.0 0.00 0.00 0.00 45 1034.0
20210917071332 64 149 3.0 10.0 0.00 0.00 0.00 45 1033.8
20210917070829 64 96 2.0 9.0 0.00 0.00 0.00 44 1033.4
20210917070333 64 145 1.0 3.0 0.00 0.00 0.00 42 1033.2
20210917065830 64 129 1.0 3.0 0.00 0.00 0.00 42 1032.8
20210917065323 64 153 0.0 3.0 0.00 0.00 0.00 41 1032.3
20210917064818 64 153 1.0 3.0 0.00 0.00 0.00 40 1031.9
20210917064331 65 106 0.0 2.0 0.00 0.00 0.00 38 1031.7
20210917063828 66 106 0.0 3.0 0.00 0.00 0.00 38 1031.4
20210917063324 66 106 1.0 3.0 0.00 0.00 0.00 37 1031.2
20210917062821 66 106 0.0 5.0 0.00 0.00 0.00 36 1031.1
20210917062324 65 90 1.0 10.0 0.00 0.00 0.00 35 1031.0
20210917061821 64 340 2.0 10.0 0.00 0.00 0.00 36 1030.7
20210917061324 63 61 1.0 9.0 0.00 0.00 0.00 35 1030.5
20210917060821 61 105 2.0 9.0 0.00 0.00 0.00 35 1030.1
20210917060323 61 150 0.0 0.0 0.00 0.00 0.00 36 1029.0
20210917055819 61 150 0.0 0.0 0.00 0.00 0.00 36 1028.7
20210917055332 61 150 0.0 0.0 0.00 0.00 0.00 35 1028.6
20210917054829 61 150 0.0 1.0 0.00 0.00 0.00 35 1028.4
20210917054322 61 150 0.0 1.0 0.00 0.00 0.00 35 1028.5
20210917053818 61 150 0.0 1.0 0.00 0.00 0.00 36 1028.4
20210917053314 61 150 0.0 2.0 0.00 0.00 0.00 37 1028.3
20210917052831 61 150 0.0 2.0 0.00 0.00 0.00 36 1028.3
20210917052313 61 150 1.0 2.0 0.00 0.00 0.00 36 1028.2
20210917051831 61 150 0.0 1.0 0.00 0.00 0.00 38 1028.1
20210917051313 61 150 0.0 0.0 0.00 0.00 0.00 37 1028.1
20210917050830 62 150 0.0 1.0 0.00 0.00 0.00 37 1027.9
20210917050333 62 150 0.0 2.0 0.00 0.00 0.00 38 1027.9
20210917045830 62 150 0.0 2.0 0.00 0.00 0.00 36 1027.8
20210917045322 62 150 0.0 2.0 0.00 0.00 0.00 37 1027.7
20210917044819 62 150 0.0 2.0 0.00 0.00 0.00 36 1027.6
20210917044332 62 150 1.0 2.0 0.00 0.00 0.00 36 1027.7
20210917043829 62 150 0.0 1.0 0.00 0.00 0.00 37 1027.6
20210917043325 62 150 0.0 3.0 0.00 0.00 0.00 37 1027.6
20210917042822 62 150 0.0 3.0 0.00 0.00 0.00 38 1027.5
20210917042325 62 150 0.0 0.0 0.00 0.00 0.00 39 1027.5
20210917041822 63 150 0.0 0.0 0.00 0.00 0.00 37 1027.5
20210917041325 63 150 0.0 2.0 0.00 0.00 0.00 37 1027.4
20210917040821 63 150 0.0 2.0 0.00 0.00 0.00 37 1027.4
20210917040325 63 148 0.0 2.0 0.00 0.00 0.00 37 1027.3
20210917035822 64 148 0.0 5.0 0.00 0.00 0.00 38 1027.3
20210917035315 64 141 2.0 5.0 0.00 0.00 0.00 34 1027.1
20210917034832 65 190 0.0 2.0 0.00 0.00 0.00 35 1027.1
20210917034325 65 190 1.0 2.0 0.00 0.00 0.00 36 1027.1
20210917033825 65 190 0.0 3.0 0.00 0.00 0.00 33 1027.1
20210917033318 65 190 1.0 3.0 0.00 0.00 0.00 33 1027.0
20210917032815 65 190 1.0 3.0 0.00 0.00 0.00 34 1026.8
20210917032317 64 253 1.0 3.0 0.00 0.00 0.00 36 1026.8
20210917031814 64 225 1.0 4.0 0.00 0.00 0.00 36 1026.7
20210917031317 64 225 0.0 4.0 0.00 0.00 0.00 36 1026.6
20210917030814 63 326 2.0 4.0 0.00 0.00 0.00 34 1026.6
20210917030317 63 304 1.0 3.0 0.00 0.00 0.00 39 1026.6
20210917025813 64 305 1.0 4.0 0.00 0.00 0.00 38 1026.6
20210917025326 64 305 0.0 4.0 0.00 0.00 0.00 37 1026.5
20210917024824 64 240 0.0 3.0 0.00 0.00 0.00 39 1026.4
20210917024320 64 240 0.0 2.0 0.00 0.00 0.00 38 1026.3
20210917023817 64 240 0.0 2.0 0.00 0.00 0.00 39 1026.1
20210917023329 64 240 0.0 0.0 0.00 0.00 0.00 38 1026.0
20210917022826 64 240 0.0 1.0 0.00 0.00 0.00 39 1026.0
20210917022329 65 240 0.0 1.0 0.00 0.00 0.00 38 1026.0
20210917021826 65 240 0.0 3.0 0.00 0.00 0.00 37 1025.7
20210917021329 65 240 0.0 3.0 0.00 0.00 0.00 37 1025.8
20210917020825 66 277 0.0 0.0 0.00 0.00 0.00 36 1025.6
20210917020327 66 277 0.0 0.0 0.00 0.00 0.00 36 1025.6
20210917015824 67 277 0.0 1.0 0.00 0.00 0.00 35 1025.4
20210917015317 68 277 0.0 3.0 0.00 0.00 0.00 34 1025.5
20210917014813 68 277 1.0 3.0 0.00 0.00 0.00 34 1025.2
20210917014330 69 277 0.0 1.0 0.00 0.00 0.00 33 1025.1
20210917013827 69 277 0.0 3.0 0.00 0.00 0.00 33 1025.0
20210917013319 70 277 0.0 4.0 0.00 0.00 0.00 33 1024.9
20210917012816 71 274 1.0 4.0 0.00 0.00 0.00 32 1024.8
20210917012318 72 274 1.0 2.0 0.00 0.00 0.00 32 1024.7
20210917011815 73 274 0.0 2.0 0.00 0.00 0.00 31 1024.7
20210917011318 74 274 0.0 2.0 0.00 0.00 0.00 29 1024.6
20210917010815 75 274 0.0 3.0 0.00 0.00 0.00 29 1024.6
20210917010318 75 273 0.0 3.0 0.00 0.00 0.00 25 1024.6
20210917005816 75 264 1.0 3.0 0.00 0.00 0.00 31 1024.5
20210917005328 75 254 0.0 2.0 0.00 0.00 0.00 31 1024.6
20210917004825 76 254 0.0 3.0 0.00 0.00 0.00 29 1024.5
20210917004323 76 254 0.0 4.0 0.00 0.00 0.00 26 1024.5
20210917003819 77 242 1.0 4.0 0.00 0.00 0.00 30 1024.5
20210917003331 78 182 0.0 1.0 0.00 0.00 0.00 29 1024.6
20210917002829 80 182 0.0 1.0 0.00 0.00 0.00 29 1024.5
20210917002331 82 182 0.0 1.0 0.00 0.00 0.00 29 1024.4
20210917001827 83 182 0.0 4.0 0.00 0.00 0.00 28 1024.4
20210917001329 84 180 0.0 4.0 0.00 0.00 0.00 29 1024.3
20210917000826 85 180 2.0 4.0 0.00 0.00 0.00 22 1024.2
20210917000329 87 174 3.0 5.0 0.00 0.00 0.00 26 1024.1
20210916235825 88 114 0.0 1.0 0.00 0.00 0.00 21 1024.0
20210916235317 88 114 0.0 0.0 0.00 0.00 0.00 24 1024.0
20210916234819 88 114 0.0 1.0 0.00 0.00 0.00 24 1024.0
20210916234331 88 114 0.0 1.0 0.00 0.00 0.00 21 1023.9
20210916233827 88 114 0.0 2.0 0.00 0.00 0.00 18 1023.8
20210916233320 88 114 0.0 2.0 0.00 0.00 0.00 16 1023.8
20210916232817 88 114 0.0 1.0 0.00 0.00 0.00 19 1023.8
20210916232320 88 114 0.0 1.0 0.00 0.00 0.00 18 1023.8
20210916231817 87 114 0.0 0.0 0.00 0.00 0.00 19 1023.8
20210916231320 86 114 0.0 2.0 0.00 0.00 0.00 25 1023.8
20210916230816 85 114 0.0 2.0 0.00 0.00 0.00 24 1023.6
20210916230318 83 114 1.0 2.0 0.00 0.00 0.00 22 1023.7
20210916225816 82 117 1.0 2.0 0.00 0.00 0.00 29 1023.7
20210916225329 82 117 0.0 2.0 0.00 0.00 0.00 38 1023.7